Вернуться в каталог

STARLINK-31513

АктивенСвязьVLEO
NORAD 59529·PAYLOAD·🇺🇸 United States

Запущен Apr 17, 2024 с Cape Canaveral Space Force Station

Loading…

Ближайшие Пролёты (ближайшие 24 часа)

TLE

СвежийSource: CelesTrak SupGP

Эпоха: Sep 14, 2026, 20:57 UTC

1 59529C 24073U   26257.87340278 -.00020307  00000+0 -73553-3 0  2573
2 59529  43.0031 326.3689 0001701 270.2545 168.5738 15.27588365    13

Отслеживайте STARLINK-31513 в реальном времени с AllMySat

Download on the App Store